Aeroporto :
LOGIN :

Iscrizione | Disclaimer

   EN    FR    IT 

 










Sommario :    VFR   VFR Marginale   IFR   IFR Intensivo   IFR Molto Intensivo
Visibilità : 
Base nubi : 
>= 8 km
>= 3000ft
5 / 8 km
1000 / 3000 ft
1500m / 5 km
500 / 1000 ft
800 / 1500m
200 / 500 ft
< 800m
< 200 ft
Simboli :   Temporali  Nebbia  Neve Forte  Precipitazioni Forti  Vento > 20 kt
SIGMETs :   Varie  Temporali  Ghiacco  Turbolenza  Onda orograficha  Ceneri Vulcaniche






- Altitudine del aeroporto : 393 ft
- Codice IATA : TYF


ESST - Torsby

ULTIMO METAR :
  • 171250Z AUTO 21019G29KT 170V240 9999 OVC027/// 07/03 Q0980

METARs OBSOLETI :
  • 171220Z AUTO 20016G37KT 160V240 9999 OVC028/// 07/03 Q0979
  • 171150Z AUTO 21015G27KT 170V260 9999 OVC028/// 07/03 Q0979
  • 171120Z AUTO 21017G35KT 170V240 9999 OVC026/// 07/03 Q0980
  • 171050Z AUTO 21014G25KT 160V250 9999 OVC026/// 07/03 Q0979
  • 171020Z AUTO 19014KT 130V230 9999 -DZ BKN023/// OVC035/// 06/03 Q0980 REUP

TAF N/A



MetMap, La meteo Aeronautica in un colpo d'occhio ! - Copyright ORBIFLY Dicembre 2007 - Disclaimer

ORBIFLY MET'MAP TEAM :

Programmazione e sviluppo : Alexandra Zaïnal
Concezione : Baudouin d'Aumeries
Aiuto per la programmazione : Marc-Olivier Méhu
Supporto tecnico e logistico : Manuel Goepfert
Aiuto per la traduzione : Arnaldo La Scala

Contatto : metmap@orbifly.com




FONTI E CREDITI :

   NOAA